{"data":{"norad_id":57901,"intl_designator":"2023-146L","name":"STARLINK-30472","alt_names":[],"object_type":"PAYLOAD","status":"ACTIVE","operator":null,"country":"US","launch_date":"2023-09-20","launch_site_code":"AFETR","launch_vehicle":null,"mission":null,"orbit_class":"UNKNOWN","rcs_meters":null,"size_class":null,"mass_kg":null,"dimensions":null,"purposes":["comms"],"wikipedia_slug":null,"has_3d_model":false,"image_url":null,"decayed_at":null,"tle_current":{"epoch":"2026-09-20T09:09:14.339808Z","epoch_age_seconds":145389,"freshness":"FRESH","line1":"1 57901U 23146L   26263.38141597 -.00000168  00000+0  34289-5 0  9991","line2":"2 57901  43.0019 291.1186 0001035 263.2541  96.8193 15.27569460165813","mean_motion":15.2756946,"eccentricity":0.0001035,"inclination_deg":43.0019,"raan_deg":291.1186,"arg_perigee_deg":263.2541,"mean_anomaly_deg":96.8193,"bstar":3.4289e-6,"rev_number":16581,"period_min":94.267399140069,"perigee_km":482.37052074539,"apogee_km":483.79079280034,"semimajor_km":6861.2176567729,"source":"CELESTRAK","updated_at":"2026-09-21T09:00:33.722470Z"}}}